This demonstration page uses our WeatherBlox Daily Observations layout. Learn more.

Left ArrowRight Arrow

44.8408, -93.29828

Hourly Observations for March 14, 2016

Temp ( °F °C ) Dew Point ( °F °C ) Humidity (%) Winds ( mph kmh ) Pressure ( in mb ) Visibility ( mi km ) Precip ( " mm )
12:30 am 00:30 Cloudy 51 10.6 45 7.2 80 80 SSE 7 11 29.68 1005 10 16 0.00 0.00
12:53 am 00:53 Cloudy 51 10.6 45 7.2 80 80 SSE 9 15 29.68 1005 10 16 0.00 0.00
1:53 am 01:53 Cloudy 50 10 46 7.8 86 86 SSE 8 13 29.67 1005 8 13 0.00 0.03
2:51 am 02:51 Cloudy with Drizzle 50 10 46 8 88 88 SSE 7 11 29.68 1005 7 11 0.00 0.03
2:53 am 02:53 Cloudy with Drizzle 50 10 46 7.8 86 86 SSE 7 11 29.67 1005 7 11 0.00 0.03
3:53 am 03:53 Cloudy with Drizzle 49 9.4 46 7.8 90 90 SE 6 9 29.66 1004 6 10 0.00 0.03
4:53 am 04:53 Cloudy with Drizzle 49 9.4 46 7.8 90 90 SSE 7 11 29.66 1004 3 5 0.00 0.03
5:01 am 05:01 Cloudy with Drizzle 49 9.4 46 7.8 90 90 SSE 6 9 29.68 1005 2 3 0.00 0.03
5:20 am 05:20 Cloudy with Drizzle 49 9.4 47 8.3 93 93 SSE 5 7 29.68 1005 3 5 0.00 0.03
5:28 am 05:28 Cloudy with Drizzle 49 9.4 47 8.3 93 93 S 5 7 29.68 1005 3 5 0.00 0.03
5:46 am 05:46 Cloudy with Drizzle 48 9 46 8 94 94 SSE 3 6 29.68 1005 2 3 0.00 0.00
5:53 am 05:53 Cloudy with Drizzle 49 9.4 47 8.3 93 93 Calm 29.65 1004 1 2 0.00 0.03
6:06 am 06:06 Cloudy with Drizzle 48 9 46 8 94 94 SE 3 6 29.68 1005 2 2 0.00 0.00
6:25 am 06:25 Cloudy with Drizzle 48 8.9 46 7.8 93 93 SE 5 7 29.68 1005 2 3 0.01 0.25
6:35 am 06:35 Cloudy with Drizzle 48 8.9 46 7.8 93 93 SE 5 7 29.68 1005 2 3 0.01 0.25
6:50 am 06:50 Cloudy with Drizzle 48 9 46 8 94 94 ESE 5 7 29.68 1005 2 3 0.01 0.25
6:53 am 06:53 Cloudy with Drizzle 48 8.9 46 7.8 93 93 ESE 5 7 29.65 1004 2 3 0.01 0.25
7:12 am 07:12 Cloudy with Mist and Fog 48 9 46 8 94 94 VRB 5 7 29.68 1005 2 2 0.00 0.00
7:53 am 07:53 Cloudy with Mist and Fog 48 8.9 47 8.3 96 96 SE 5 7 29.66 1004 2 3 0.00 0.03
8:14 am 08:14 Cloudy with Mist and Fog 48 9 46 8 94 94 SE 6 9 29.68 1005 2 3 0.00 0.00
8:26 am 08:26 Cloudy with Mist and Fog 48 9 46 8 94 94 SE 5 7 29.68 1005 2 3 0.00 0.00
8:32 am 08:32 Cloudy with Mist and Fog 48 9 46 8 94 94 SE 5 7 29.68 1005 2 3 0.00 0.00
8:47 am 08:47 Cloudy with Mist and Fog 48 9 46 8 94 94 SE 6 9 29.68 1005 2 3 0.00 0.00
8:53 am 08:53 Cloudy with Mist and Fog 48 8.9 47 8.3 96 96 SE 7 11 29.65 1004 2 3 0.00 0.00
9:34 am 09:34 Cloudy with Mist and Fog 48 9 46 8 94 94 SSE 5 7 29.68 1005 3 5 0.00 0.00
9:53 am 09:53 Cloudy with Mist and Fog 49 9.4 47 8.3 93 93 SE 5 7 29.66 1004 3 5 0.00 0.00
10:22 am 10:22 Cloudy with Mist and Fog 49 9.4 47 8.3 93 93 SE 5 7 29.68 1005 3 4 0.00 0.00
10:35 am 10:35 Cloudy with Mist and Fog 49 9.4 47 8.3 93 93 ESE 7 11 29.68 1005 2 3 0.00 0.00
10:53 am 10:53 Cloudy with Mist and Fog 50 10 48 8.9 93 93 ESE 5 7 29.66 1004 2 2 0.00 0.00
11:03 am 11:03 Cloudy with Mist and Fog 50 10 48 9 94 94 ESE 3 6 29.68 1005 1 2 0.00 0.00
11:27 am 11:27 Cloudy with Mist and Fog 50 10 48 8.9 93 93 E 3 6 29.68 1005 2 2 0.00 0.00
11:53 am 11:53 Cloudy with Mist and Fog 50 10 49 9.4 96 96 ESE 5 7 29.67 1005 2 3 0.00 0.00
12:03 pm 12:03 Cloudy with Mist and Fog 52 11 48 9 88 88 ESE 5 7 29.65 1004 2 3 0.00 0.00
12:25 pm 12:25 Cloudy with Mist and Fog 51 10.6 50 10 96 96 SSE 3 6 29.65 1004 3 5 0.00 0.00
12:53 pm 12:53 Cloudy with Mist and Fog 53 11.7 49 9.4 86 86 SSE 3 6 29.67 1005 4 6 0.00 0.00
1:27 pm 13:27 Cloudy with Mist and Fog 54 12.2 50 10 87 87 E 5 7 29.65 1004 5 8 0.00 0.00
1:53 pm 13:53 Cloudy with Haze 55 12.8 50 10 83 83 E 6 9 29.65 1004 6 10 0.00 0.00
2:08 pm 14:08 Cloudy with Haze 55 13 50 10 82 82 SE 3 6 29.65 1004 6 10 0.00 0.00
2:53 pm 14:53 Cloudy with Haze 56 13.3 50 10 81 81 ESE 8 13 29.63 1004 6 10 0.00 0.00
3:53 pm 15:53 Cloudy with Haze 57 13.9 50 10 78 78 E 8 13 29.64 1004 6 10 0.00 0.00
4:19 pm 16:19 Cloudy 57 13.9 50 10 78 78 SE 6 9 29.62 1003 7 11 0.00 0.00
4:53 pm 16:53 Cloudy 58 14.4 50 10 75 75 ESE 8 13 29.63 1004 7 11 0.00 0.00
5:53 pm 17:53 Cloudy 58 14.4 50 10 75 75 E 7 11 29.63 1004 9 14 0.00 0.00
6:53 pm 18:53 Cloudy 57 13.9 50 10 78 78 ESE 12 19 29.63 1004 10 16 0.00 0.00
7:53 pm 19:53 Cloudy 57 13.9 49 9.4 74 74 ESE 10 17 29.64 1004 10 16 0.00 0.00
8:35 pm 20:35 Mostly Cloudy 56 13.3 49 9.4 77 77 E 8 13 29.65 1004 9 14 0.00 0.00
8:53 pm 20:53 Mostly Cloudy 54 12.2 49 9.4 83 83 ESE 6 9 29.65 1004 7 11 0.00 0.00
9:53 pm 21:53 Cloudy 54 12.2 49 9.4 83 83 ESE 9 15 29.67 1005 7 11 0.00 0.00
10:10 pm 22:10 Cloudy 54 12 48 9 82 82 ESE 10 17 29.65 1004 8 13 0.00 0.00
10:53 pm 22:53 Cloudy 54 12.2 49 9.4 83 83 ESE 10 17 29.66 1005 8 13 0.00 0.00
11:18 pm 23:18 Cloudy 54 12 48 9 82 82 E 15 24 29.65 1004 8 13 0.00 0.00
11:45 pm 23:45 Cloudy 53 11.7 49 9.4 86 86 ESE 10 17 29.65 1004 8 13 0.00 0.00
11:53 pm 23:53 Cloudy 53 11.7 49 9.4 86 86 ESE 12 19 29.65 1004 8 13 0.00 0.00

Powered by AerisWeather